{"data":{"norad_id":66401,"intl_designator":"2025-257X","name":"STARLINK-35668","alt_names":[],"object_type":"PAYLOAD","status":"ACTIVE","operator":null,"country":"US","launch_date":"2025-11-09","launch_site_code":"AFETR","launch_vehicle":null,"mission":null,"orbit_class":"UNKNOWN","rcs_meters":null,"size_class":null,"mass_kg":null,"dimensions":null,"purposes":["comms"],"wikipedia_slug":null,"has_3d_model":false,"image_url":null,"decayed_at":null,"tle_current":{"epoch":"2026-05-24T21:46:33.401856Z","epoch_age_seconds":79213,"freshness":"FRESH","line1":"1 66401U 25257X   26144.90733104  .00020614  00000+0  61963-3 0  9992","line2":"2 66401  53.1567 222.2230 0000989  67.3828 292.7279 15.34396634 31410","mean_motion":15.34396634,"eccentricity":9.89e-5,"inclination_deg":53.1567,"raan_deg":222.223,"arg_perigee_deg":67.3828,"mean_anomaly_deg":292.7279,"bstar":0.00061963,"rev_number":3141,"period_min":93.847963954801,"perigee_km":462.03668459755,"apogee_km":463.38980477595,"semimajor_km":6840.8502446867,"source":"CELESTRAK","updated_at":"2026-05-25T13:38:21.204806Z"}}}